QAK095 MMMY-MMAA

Flight info

Callsign QAK095
Flight time 1h 23m
Altitude 41000
Route KERGA1A KERGA UT132 DARAN DCT TEVOS/N0429F400 UT116 VOKAM UJ55 ANALU ANALU1B
Aircraft LJ35/M-SGHRWXY/SB1

Departure

Time 2026-04-30 19:03
Airport Monterrey International Airport (MMMY)

Arrival

Time 2026-04-30 20:27
Airport General Juan N. Álvarez International Airport (MMAA)
Time Latitude Longitude Altitude Speed Heading
2026-04-30 18:47 25.77322 -100.10836 1273 ft 0 kts 166°
2026-04-30 18:57 25.77349 -100.10847 1273 ft 0 kts 157°
2026-04-30 18:57 25.77348 -100.10832 1273 ft 4 kts 36°
2026-04-30 18:57 25.77353 -100.10874 1273 ft 10 kts 256°
2026-04-30 18:58 25.77429 -100.10912 1274 ft 11 kts 345°
2026-04-30 18:58 25.77510 -100.10935 1274 ft 13 kts 345°
2026-04-30 18:58 25.77609 -100.10963 1274 ft 16 kts 343°
2026-04-30 18:59 25.77742 -100.11093 1275 ft 10 kts 32°
2026-04-30 19:00 25.77898 -100.11181 1275 ft 14 kts 302°
2026-04-30 19:00 25.77954 -100.11282 1275 ft 17 kts 301°
2026-04-30 19:00 25.78095 -100.11537 1275 ft 22 kts 301°
2026-04-30 19:01 25.78218 -100.11762 1275 ft 17 kts 301°
2026-04-30 19:01 25.78257 -100.11821 1275 ft 4 kts 341°
2026-04-30 19:02 25.78337 -100.11761 1275 ft 11 kts 28°
2026-04-30 19:02 25.78384 -100.11657 1275 ft 17 kts 123°
2026-04-30 19:03 25.77884 -100.10750 1274 ft 122 kts 121°
2026-04-30 19:03 25.76848 -100.08882 2186 ft 139 kts 119°
2026-04-30 19:04 25.75876 -100.06976 2928 ft 152 kts 124°
2026-04-30 19:04 25.74756 -100.04977 3791 ft 156 kts 123°
2026-04-30 19:05 25.73519 -100.02797 4325 ft 184 kts 119°
2026-04-30 19:05 25.72059 -100.00147 4682 ft 219 kts 122°
2026-04-30 19:06 25.69532 -99.98117 5310 ft 249 kts 173°
2026-04-30 19:06 25.67761 -99.98138 5794 ft 259 kts 184°
2026-04-30 19:06 25.64072 -99.98397 6730 ft 271 kts 180°
2026-04-30 19:07 25.60284 -99.98367 8159 ft 274 kts 181°
2026-04-30 19:07 25.58354 -99.98384 9088 ft 281 kts 182°
2026-04-30 19:08 25.54390 -99.98416 10905 ft 288 kts 182°
2026-04-30 19:08 25.50295 -99.98439 12356 ft 307 kts 182°
2026-04-30 19:08 25.48109 -99.98453 12866 ft 321 kts 182°
2026-04-30 19:09 25.43459 -99.98481 13901 ft 340 kts 182°
2026-04-30 19:09 25.41076 -99.98493 14494 ft 346 kts 183°
2026-04-30 19:09 25.38656 -99.98509 15107 ft 350 kts 183°
2026-04-30 19:10 25.33734 -99.98636 16283 ft 357 kts 185°
2026-04-30 19:10 25.28701 -99.98863 17434 ft 366 kts 185°
2026-04-30 19:11 25.26138 -99.98980 17996 ft 371 kts 185°
2026-04-30 19:11 25.20936 -99.99231 19029 ft 377 kts 186°
2026-04-30 19:11 25.18306 -99.99352 19540 ft 380 kts 186°
2026-04-30 19:12 25.15647 -99.99476 20030 ft 384 kts 186°
2026-04-30 19:12 25.12971 -99.99602 20473 ft 387 kts 186°
2026-04-30 19:12 25.10274 -99.99727 20973 ft 388 kts 186°
2026-04-30 19:13 25.04835 -99.99986 22001 ft 394 kts 186°
2026-04-30 19:13 24.99323 -100.00238 22959 ft 398 kts 187°
2026-04-30 19:13 24.96540 -100.00371 23379 ft 402 kts 187°
2026-04-30 19:14 24.93728 -100.00440 23756 ft 408 kts 182°
2026-04-30 19:14 24.90879 -100.00267 24098 ft 411 kts 181°
2026-04-30 19:14 24.88020 -100.00084 24511 ft 413 kts 182°
2026-04-30 19:14 24.85132 -99.99926 24754 ft 417 kts 182°
2026-04-30 19:15 24.82230 -99.99770 25087 ft 420 kts 182°
2026-04-30 19:15 24.76386 -99.99426 25778 ft 422 kts 182°
2026-04-30 19:15 24.73445 -99.99262 26085 ft 424 kts 182°
2026-04-30 19:16 24.70492 -99.99096 26400 ft 426 kts 182°
2026-04-30 19:16 24.67521 -99.98927 26691 ft 429 kts 182°
2026-04-30 19:16 24.61539 -99.98583 27317 ft 433 kts 183°
2026-04-30 19:17 24.58519 -99.98412 27621 ft 435 kts 183°
2026-04-30 19:17 24.52442 -99.98067 28194 ft 440 kts 183°
2026-04-30 19:17 24.49377 -99.97892 28467 ft 442 kts 183°
2026-04-30 19:18 24.44253 -99.97600 28887 ft 445 kts 183°
2026-04-30 19:18 24.40146 -99.97368 29224 ft 448 kts 183°
2026-04-30 19:18 24.37027 -99.97191 29446 ft 450 kts 183°
2026-04-30 19:19 24.33895 -99.97013 29662 ft 452 kts 183°
2026-04-30 19:19 24.30746 -99.96834 29873 ft 454 kts 183°
2026-04-30 19:19 24.24421 -99.96476 30211 ft 457 kts 183°
2026-04-30 19:20 24.21246 -99.96296 30387 ft 458 kts 182°
2026-04-30 19:20 24.18060 -99.96115 30578 ft 459 kts 183°
2026-04-30 19:20 24.11637 -99.95754 30874 ft 463 kts 182°
2026-04-30 19:21 24.08419 -99.95570 31054 ft 464 kts 183°
2026-04-30 19:21 24.01947 -99.95206 31359 ft 467 kts 182°
2026-04-30 19:22 23.95426 -99.94839 31657 ft 472 kts 182°
2026-04-30 19:22 23.85582 -99.94282 32041 ft 473 kts 182°
2026-04-30 19:23 23.75685 -99.93725 32278 ft 476 kts 181°
2026-04-30 19:24 23.69057 -99.93354 32412 ft 478 kts 181°
2026-04-30 19:24 23.65739 -99.93168 32464 ft 478 kts 181°
2026-04-30 19:25 23.49081 -99.92234 32637 ft 481 kts 181°
2026-04-30 19:26 23.35742 -99.91488 32714 ft 482 kts 181°
2026-04-30 19:27 23.25685 -99.90928 32728 ft 483 kts 181°
2026-04-30 19:28 23.15615 -99.90365 32788 ft 483 kts 181°
2026-04-30 19:29 23.02272 -99.89619 33608 ft 467 kts 181°
2026-04-30 19:29 22.99008 -99.89440 33736 ft 471 kts 181°
2026-04-30 19:30 22.89261 -99.88899 35096 ft 463 kts 181°
2026-04-30 19:30 22.82856 -99.88547 36011 ft 458 kts 181°
2026-04-30 19:31 22.76530 -99.88195 36907 ft 453 kts 181°
2026-04-30 19:31 22.73384 -99.88020 37330 ft 451 kts 181°
2026-04-30 19:31 22.67148 -99.87677 38141 ft 447 kts 181°
2026-04-30 19:32 22.64044 -99.87505 38499 ft 446 kts 181°
2026-04-30 19:32 22.60951 -99.87334 38765 ft 446 kts 181°
2026-04-30 19:32 22.57851 -99.87163 39010 ft 446 kts 181°
2026-04-30 19:32 22.54750 -99.86992 39260 ft 446 kts 181°
2026-04-30 19:33 22.51647 -99.86821 39503 ft 447 kts 181°
2026-04-30 19:33 22.48542 -99.86649 39735 ft 447 kts 181°
2026-04-30 19:33 22.45435 -99.86478 39976 ft 447 kts 181°
2026-04-30 19:33 22.42320 -99.86307 40214 ft 448 kts 181°
2026-04-30 19:34 22.39215 -99.86136 40435 ft 448 kts 181°
2026-04-30 19:34 22.36092 -99.85964 40671 ft 449 kts 181°
2026-04-30 19:34 22.29855 -99.85620 41131 ft 449 kts 181°
2026-04-30 19:35 22.26778 -99.85451 41346 ft 449 kts 181°
2026-04-30 19:35 22.23649 -99.85279 41567 ft 449 kts 181°
2026-04-30 19:35 22.21539 -99.85164 41722 ft 450 kts 181°
2026-04-30 19:35 22.17400 -99.84936 42021 ft 450 kts 181°
2026-04-30 19:36 22.14275 -99.84764 42223 ft 450 kts 182°
2026-04-30 19:36 22.11150 -99.84593 42458 ft 450 kts 182°
2026-04-30 19:36 22.04881 -99.84251 42689 ft 454 kts 182°
2026-04-30 19:37 21.99553 -99.83959 42687 ft 461 kts 181°
2026-04-30 19:37 21.93112 -99.83605 42698 ft 465 kts 181°
2026-04-30 19:38 21.86645 -99.83252 42701 ft 466 kts 181°
2026-04-30 19:38 21.80163 -99.82897 42698 ft 466 kts 181°
2026-04-30 19:39 21.73683 -99.82544 42695 ft 466 kts 181°
2026-04-30 19:39 21.67209 -99.82191 42698 ft 466 kts 181°
2026-04-30 19:40 21.60727 -99.81837 42692 ft 466 kts 181°
2026-04-30 19:40 21.54242 -99.81485 42698 ft 466 kts 181°
2026-04-30 19:41 21.47770 -99.81132 42693 ft 466 kts 181°
2026-04-30 19:41 21.41344 -99.80784 42692 ft 466 kts 181°
2026-04-30 19:42 21.34861 -99.80431 42693 ft 466 kts 181°
2026-04-30 19:42 21.28395 -99.80081 42692 ft 465 kts 181°
2026-04-30 19:43 21.21941 -99.79731 42687 ft 464 kts 181°
2026-04-30 19:44 21.12282 -99.79209 42690 ft 463 kts 181°
2026-04-30 19:44 21.05848 -99.78860 42685 ft 463 kts 181°
2026-04-30 19:45 20.99423 -99.78623 42682 ft 462 kts 182°
2026-04-30 19:45 20.92990 -99.78368 42677 ft 462 kts 182°
2026-04-30 19:46 20.86573 -99.78170 42671 ft 462 kts 182°
2026-04-30 19:46 20.80145 -99.77941 42668 ft 462 kts 182°
2026-04-30 19:47 20.73717 -99.77727 42671 ft 462 kts 182°
2026-04-30 19:47 20.67296 -99.77506 42668 ft 462 kts 181°
2026-04-30 19:48 20.60876 -99.77286 42667 ft 461 kts 181°
2026-04-30 19:48 20.54469 -99.77066 42677 ft 461 kts 181°
2026-04-30 19:49 20.48061 -99.76847 42676 ft 460 kts 181°
2026-04-30 19:49 20.38468 -99.76519 42692 ft 460 kts 181°
2026-04-30 19:50 20.32124 -99.76302 42701 ft 459 kts 181°
2026-04-30 19:50 20.25732 -99.76083 42710 ft 459 kts 181°
2026-04-30 19:51 20.19416 -99.75057 42720 ft 465 kts 164°
2026-04-30 19:51 20.13451 -99.72336 42735 ft 467 kts 158°
2026-04-30 19:52 20.07524 -99.69532 42737 ft 466 kts 158°
2026-04-30 19:52 20.01598 -99.66724 42739 ft 466 kts 158°
2026-04-30 19:53 19.95677 -99.63924 42740 ft 466 kts 158°
2026-04-30 19:53 19.89755 -99.61124 42740 ft 465 kts 158°
2026-04-30 19:54 19.83841 -99.58332 42733 ft 465 kts 158°
2026-04-30 19:54 19.77926 -99.55540 42734 ft 465 kts 158°
2026-04-30 19:55 19.72948 -99.53193 42728 ft 464 kts 158°
2026-04-30 19:55 19.67038 -99.50409 42779 ft 465 kts 158°
2026-04-30 19:56 19.61128 -99.47626 42897 ft 464 kts 158°
2026-04-30 19:56 19.55225 -99.44850 42998 ft 464 kts 158°
2026-04-30 19:57 19.49319 -99.42072 43074 ft 464 kts 157°
2026-04-30 19:57 19.43420 -99.39303 43119 ft 463 kts 157°
2026-04-30 19:58 19.37522 -99.36534 43109 ft 464 kts 157°
2026-04-30 19:58 19.31622 -99.33768 43048 ft 463 kts 157°
2026-04-30 19:59 19.25732 -99.31008 42957 ft 463 kts 157°
2026-04-30 19:59 19.19842 -99.28250 42842 ft 463 kts 157°
2026-04-30 20:00 19.16898 -99.26873 42765 ft 463 kts 157°
2026-04-30 20:00 19.11039 -99.24133 42801 ft 464 kts 157°
2026-04-30 20:01 19.02187 -99.19998 42901 ft 464 kts 157°
2026-04-30 20:01 18.96275 -99.17238 42955 ft 464 kts 157°
2026-04-30 20:02 18.87417 -99.13109 42955 ft 464 kts 157°
2026-04-30 20:03 18.78568 -99.08987 42892 ft 463 kts 157°
2026-04-30 20:03 18.72686 -99.06251 42821 ft 462 kts 157°
2026-04-30 20:04 18.66806 -99.03517 42725 ft 461 kts 157°
2026-04-30 20:05 18.58007 -98.99430 42595 ft 460 kts 157°
2026-04-30 20:05 18.49217 -98.95369 42586 ft 459 kts 159°
2026-04-30 20:06 18.43005 -98.94012 42588 ft 457 kts 179°
2026-04-30 20:06 18.36742 -98.94842 42190 ft 458 kts 198°
2026-04-30 20:07 18.33752 -98.96007 41458 ft 460 kts 202°
2026-04-30 20:07 18.30754 -98.97239 40755 ft 465 kts 202°
2026-04-30 20:07 18.24679 -98.99686 39416 ft 470 kts 202°
2026-04-30 20:08 18.21620 -99.00927 38777 ft 472 kts 202°
2026-04-30 20:08 18.18550 -99.02177 38142 ft 474 kts 202°
2026-04-30 20:08 18.15468 -99.03424 37421 ft 475 kts 202°
2026-04-30 20:08 18.12378 -99.04670 36716 ft 475 kts 202°
2026-04-30 20:09 18.09291 -99.05919 36037 ft 475 kts 202°
2026-04-30 20:09 18.06211 -99.07166 35381 ft 475 kts 202°
2026-04-30 20:09 18.00058 -99.09651 34077 ft 473 kts 202°
2026-04-30 20:10 17.93968 -99.12110 32555 ft 471 kts 201°
2026-04-30 20:10 17.90906 -99.13347 31787 ft 471 kts 201°
2026-04-30 20:10 17.87852 -99.14579 31039 ft 470 kts 201°
2026-04-30 20:11 17.81742 -99.17041 29574 ft 470 kts 201°
2026-04-30 20:11 17.78698 -99.18268 28758 ft 469 kts 201°
2026-04-30 20:11 17.75651 -99.19496 27954 ft 468 kts 200°
2026-04-30 20:12 17.69571 -99.21943 26426 ft 468 kts 200°
2026-04-30 20:12 17.66535 -99.23166 25689 ft 467 kts 200°
2026-04-30 20:12 17.63606 -99.24643 24964 ft 468 kts 208°
2026-04-30 20:13 17.60771 -99.26315 24267 ft 467 kts 208°
2026-04-30 20:13 17.57934 -99.27957 23576 ft 466 kts 207°
2026-04-30 20:13 17.55092 -99.29586 22808 ft 465 kts 207°
2026-04-30 20:13 17.52264 -99.31223 22019 ft 463 kts 208°
2026-04-30 20:14 17.49434 -99.32821 21238 ft 460 kts 204°
2026-04-30 20:14 17.46451 -99.33967 20409 ft 455 kts 195°
2026-04-30 20:14 17.43442 -99.34929 19586 ft 448 kts 195°
2026-04-30 20:14 17.40481 -99.35895 18782 ft 443 kts 195°
2026-04-30 20:15 17.37551 -99.36856 17983 ft 439 kts 195°
2026-04-30 20:15 17.34652 -99.37796 17097 ft 435 kts 195°
2026-04-30 20:15 17.31768 -99.38726 16208 ft 432 kts 195°
2026-04-30 20:15 17.28906 -99.39655 15356 ft 428 kts 195°
2026-04-30 20:16 17.26068 -99.40579 14535 ft 426 kts 195°
2026-04-30 20:16 17.23244 -99.41497 13724 ft 424 kts 195°
2026-04-30 20:16 17.20435 -99.42407 12844 ft 422 kts 195°
2026-04-30 20:16 17.17664 -99.43303 12202 ft 405 kts 195°
2026-04-30 20:17 17.15067 -99.44151 11620 ft 378 kts 195°
2026-04-30 20:17 17.12658 -99.44934 11045 ft 352 kts 195°
2026-04-30 20:17 17.10407 -99.45656 10485 ft 335 kts 195°
2026-04-30 20:17 17.08224 -99.46365 9947 ft 322 kts 195°
2026-04-30 20:18 17.06103 -99.47052 9446 ft 309 kts 195°
2026-04-30 20:18 17.04109 -99.47696 9027 ft 298 kts 195°
2026-04-30 20:18 17.02161 -99.48325 8648 ft 289 kts 195°
2026-04-30 20:18 17.00235 -99.48950 8262 ft 283 kts 196°
2026-04-30 20:19 16.98393 -99.49545 7900 ft 280 kts 196°
2026-04-30 20:19 16.97136 -99.49951 7660 ft 279 kts 196°
2026-04-30 20:19 16.94665 -99.50750 7175 ft 276 kts 197°
2026-04-30 20:19 16.92862 -99.51333 6831 ft 274 kts 197°
2026-04-30 20:20 16.91022 -99.51928 6481 ft 272 kts 198°
2026-04-30 20:20 16.89239 -99.52503 6138 ft 270 kts 198°
2026-04-30 20:20 16.87427 -99.53089 5773 ft 268 kts 198°
2026-04-30 20:20 16.85673 -99.53655 5423 ft 267 kts 199°
2026-04-30 20:21 16.83945 -99.54211 5059 ft 249 kts 200°
2026-04-30 20:21 16.82324 -99.54733 4699 ft 241 kts 200°
2026-04-30 20:21 16.80759 -99.55240 4460 ft 230 kts 201°
2026-04-30 20:21 16.79245 -99.55729 4130 ft 226 kts 201°
2026-04-30 20:22 16.77759 -99.56211 3807 ft 221 kts 201°
2026-04-30 20:22 16.76313 -99.56702 3518 ft 215 kts 202°
2026-04-30 20:22 16.74909 -99.57183 3269 ft 210 kts 202°
2026-04-30 20:22 16.73568 -99.57700 3015 ft 203 kts 212°
2026-04-30 20:23 16.72495 -99.58604 2754 ft 195 kts 231°
2026-04-30 20:23 16.71796 -99.59788 2509 ft 189 kts 250°
2026-04-30 20:23 16.71514 -99.61110 2258 ft 186 kts 266°
2026-04-30 20:23 16.71690 -99.62437 2006 ft 186 kts 284°
2026-04-30 20:24 16.72070 -99.63720 1761 ft 184 kts 284°
2026-04-30 20:24 16.72459 -99.64986 1508 ft 183 kts 286°
2026-04-30 20:24 16.72726 -99.65813 1346 ft 182 kts 286°
2026-04-30 20:24 16.73108 -99.67062 1094 ft 178 kts 284°
2026-04-30 20:25 16.73819 -99.69326 694 ft 140 kts 285°
2026-04-30 20:25 16.74094 -99.70196 542 ft 116 kts 285°
2026-04-30 20:26 16.74631 -99.71830 253 ft 137 kts 281°
2026-04-30 20:26 16.75174 -99.73676 27 ft 122 kts 283°
2026-04-30 20:26 16.75427 -99.74411 16 ft 94 kts 293°
2026-04-30 20:27 16.75665 -99.75252 16 ft 21 kts 292°
2026-04-30 20:27 16.75770 -99.75567 18 ft 23 kts 289°
2026-04-30 20:28 16.75922 -99.75395 15 ft 21 kts 67°
2026-04-30 20:28 16.76013 -99.75160 15 ft 20 kts 75°
2026-04-30 20:29 16.76077 -99.75078 15 ft 4 kts 248°
2026-04-30 20:30 16.76076 -99.75078 15 ft 0 kts 248°